Location: Cheyres
(46.8153°N, 6.7877°E)
Time: 23:31:03
(UTC+00:00)

FENGYUN 1C DEB - Pass Details

Date: 28 November 2021
Orbit: 843 x 915 km, 99.0° (Epoch: 21 January)

Event Time Altitude Azimuth Distance (km) Brightness Sun altitude
Exits shadow 17:07:04 14° 43° (NE) 2,264 ? -13.2°
Drops below altitude 10° 17:08:59 10° 23° (NNE) 2,515 ? -13.5°
Sets 17:12:30 0° 360° (N) 3,443 ? -14.1°
